Poplar Bluff, MO

11:04 AM CDT on April 21, 2018 (GMT -0500)
Poplar Bluff Municipal

Weather History for KPOF - May, 2014

Change the Weather History Date:

Sunday, May 18, 2014

  Actual Average Record
Temperature  
Mean Temperature 60 °F -  
Max Temperature 69 °F 80 °F 94 °F (1944)
Min Temperature 51 °F 55 °F 39 °F (2002)
Degree Days  
Heating Degree Days 6    
Growing Degree Days 10 (Base 50)    
Moisture  
Dew Point 44 °F    
Average Humidity 57    
Maximum Humidity 83    
Minimum Humidity 37    
Precipitation  
Precipitation 0.00 in - - ()
Sea Level Pressure  
Sea Level Pressure 30.20 in    
Wind  
Wind Speed 5 mph (ENE)    
Max Wind Speed 9 mph    
Max Gust Speed -    
Visibility 10 miles    
Events      
Averages and records for this station are not official NWS values.
T = Trace of Precipitation, MM = Missing Value Source: NWS Daily Summary

Daily Weather History Graph

Daily Weather History Graph

Search for Another Location

Airport or City:

Astronomy

May. 18, 2014 Rise Set
Actual Time 5:51 AM CDT 8:04 PM CDT
Civil Twilight 5:22 AM CDT 8:33 PM CDT
Nautical Twilight 4:46 AM CDT 9:09 PM CDT
Astronomical Twilight 4:07 AM CDT 9:48 PM CDT
Moon 11:54 PM CDT (5/18) 9:39 AM CDT (5/18)
Length of Visible Light 15h 11m
Length of Day
14h 13m
Waning Gibbous, 81% of the Moon is Illuminated
May 18
Waning Gibbous
May 21
Last Quarter
May 28
New
Jun 5
First Quarter
Jun 12
Full

Hourly Weather History & Observations

Time (CDT) Temp. Dew Point Humidity Pressure Visibility Wind Dir Wind Speed Gust Speed Precip Events Conditions
12:53 AM 55.9 °F 44.1 °F 64% 30.19 in 10.0 mi ENE 5.8 mph - N/A   Clear
1:53 AM 55.9 °F 43.0 °F 62% 30.20 in 10.0 mi NE 4.6 mph - N/A   Clear
2:53 AM 54.0 °F 45.0 °F 72% 30.20 in 10.0 mi NNE 6.9 mph - N/A   Clear
3:53 AM 53.1 °F 43.0 °F 69% 30.19 in 10.0 mi NNE 8.1 mph - N/A   Clear
4:53 AM 52.0 °F 43.0 °F 71% 30.21 in 10.0 mi NE 6.9 mph - N/A   Clear
5:53 AM 51.1 °F 42.1 °F 71% 30.23 in 10.0 mi NNE 3.5 mph - N/A   Clear
6:53 AM 52.0 °F 42.1 °F 69% 30.25 in 10.0 mi Calm Calm - N/A   Clear
7:53 AM 55.0 °F 44.1 °F 67% 30.25 in 10.0 mi NE 4.6 mph - N/A   Clear
8:53 AM 59.0 °F 39.9 °F 49% 30.26 in 10.0 mi East 6.9 mph - N/A   Clear
9:53 AM 61.0 °F 41.0 °F 48% 30.27 in 10.0 mi East 9.2 mph - N/A   Clear
10:53 AM 63.0 °F 41.0 °F 45% 30.27 in 10.0 mi East 9.2 mph - N/A   Clear
11:53 AM 64.0 °F 42.1 °F 45% 30.25 in 10.0 mi ESE 4.6 mph - N/A   Clear
12:53 PM 66.9 °F 42.1 °F 40% 30.22 in 10.0 mi NE 6.9 mph - N/A   Clear
1:53 PM 68.0 °F 44.1 °F 42% 30.21 in 10.0 mi East 8.1 mph - N/A   Clear
2:53 PM 68.0 °F 41.0 °F 37% 30.20 in 10.0 mi NE 3.5 mph - N/A   Clear
3:53 PM 68.0 °F 42.1 °F 39% 30.19 in 10.0 mi Variable 4.6 mph - N/A   Clear
4:53 PM 68.0 °F 43.0 °F 40% 30.18 in 10.0 mi SSE 6.9 mph - N/A   Clear
5:53 PM 68.0 °F 43.0 °F 40% 30.17 in 10.0 mi East 6.9 mph - N/A   Clear
6:53 PM 66.9 °F 42.1 °F 40% 30.17 in 10.0 mi East 5.8 mph - N/A   Clear
7:53 PM 64.9 °F 45.0 °F 48% 30.17 in 10.0 mi East 3.5 mph - N/A   Clear
8:53 PM 60.1 °F 48.9 °F 67% 30.15 in 10.0 mi East 4.6 mph - N/A   Clear
9:53 PM 57.9 °F 50.0 °F 75% 30.16 in 10.0 mi Calm Calm - N/A   Clear
10:53 PM 57.0 °F 51.1 °F 81% 30.16 in 10.0 mi Calm Calm - N/A   Clear
11:53 PM 55.0 °F 50.0 °F 83% 30.16 in 8.0 mi Calm Calm - N/A   Clear